Tracking 31027 objects as of 19-Jul-2025
HD Live streaming from Space Station
objects crossing your sky now

ONEWEB-0414

Track ONEWEB-0414 now!
10-day predictions
ONEWEB-0414 is classified as:


NORAD ID: 50491
Int'l Code: 2021-132Y
Perigee: 1,195.5 km
Apogee: 1,198.3 km
Inclination: 87.9 °
Period: 109.2 minutes
Semi major axis: 7567 km
RCS: Unknown
Launch date: December 27, 2021
Source: United Kingdom (UK)
Launch site: TYURATAM MISSILE AND SPACE COMPLEX (TTMTR)
Your satellite tracking list
IRIDIUM 33 DEB
Track 1 satellite(s)




NASA's NSSDC Master Catalog

Two Line Element Set (TLE):
1 50491U 21132Y   25199.84493900  .00000013  00000-0  81862-6 0  9996
2 50491  87.9122  41.6582 0001846  94.7777 265.3566 13.18686462177694
Source of the keplerian elements: AFSPC